[[{"header":{"parameterUnit":"m.s-1","parameterCategory":1,"la1":30.2991,"la2":30.254,"lo1":-89.0895,"lo2":-89.0444,"dy":0.0017,"dx":0.0017,"nx":28,"ny":28,"refTime":"2025-06-01T09:00:00:Z","depth":0,"parameterNumber":2,"parameterNumberName":"U-component_of_WINDS"},"data":[0,0,0,0,0,0,0,0,0,0,0,0,0,0,0,0,0,0,0,0,0,0,0,0,0,0,0,0,0,0,0,0,0,0,0,0,0,0,0,0,0,0,0,0,0,0,0,0,0,0,0,0,0,0,0,0,0,0,-1.6462,-1.6463,0,-1.6628,-1.663,-1.6632,-1.6634,-1.6631,-1.6629,-1.6627,-1.6801,-1.6807,-1.6814,0,0,0,0,0,0,0,0,0,0,0,0,0,-1.6146,-1.6152,-1.6461,-1.6464,-1.6466,-1.6628,-1.663,-1.6633,-1.6634,-1.6631,-1.6629,-1.6626,-1.6799,-1.6806,-1.6814,0,0,0,0,0,0,0,0,0,0,0,0,0,-1.6295,-1.6154,-1.6461,-1.6486,-1.649,-1.6628,-1.663,-1.6633,-1.6634,-1.6631,-1.6628,-1.6625,-1.6796,-1.6806,-1.6815,-1.6941,0,0,-1.6846,-1.685,0,0,0,0,0,0,0,0,-1.6287,-1.6307,-1.648,-1.6484,-1.6489,-1.6607,-1.6583,-1.6736,-1.6635,-1.658,-1.6627,-1.6624,-1.6739,-1.6753,-1.6792,-1.6949,-1.6956,-1.6846,-1.6852,-1.6857,-1.686,0,0,0,0,0,0,0,-1.6276,-1.6299,-1.6528,-1.6483,-1.6488,-1.6489,-1.6507,-1.6612,-1.6675,-1.6584,-1.6585,-1.6604,-1.6741,-1.6782,-1.6796,-1.6959,-1.6846,-1.6855,-1.6861,-1.6865,-1.7228,-1.7231,0,0,0,0,0,0,-1.6261,-1.6291,-1.6522,-1.6533,-1.6378,-1.6497,-1.6517,-1.6572,-1.6674,-1.6687,-1.6607,-1.6604,-1.6767,-1.6784,-1.6802,-1.6956,-1.6857,-1.6866,-1.6872,-1.7224,-1.7228,-1.7232,0,0,0,0,0,0,-1.6254,-1.6281,-1.6516,-1.6412,-1.6442,-1.6506,-1.6568,-1.6577,-1.6619,-1.6691,-1.6703,-1.6637,-1.6765,-1.6788,-1.6906,-1.6962,-1.687,-1.6879,-1.722,-1.7225,-1.723,-1.7266,0,0,0,0,0,0,-1.6245,-1.6279,-1.6327,-1.6413,-1.6447,-1.6617,-1.6572,-1.6583,-1.6635,-1.6633,-1.6723,-1.6735,-1.6764,-1.6891,-1.6916,-1.6974,-1.6887,-1.7215,-1.7222,-1.7229,-1.726,-1.7272,-1.7282,0,0,0,0,0,-1.6233,-1.633,-1.6329,-1.6357,-1.6508,-1.662,-1.664,-1.6671,-1.664,-1.6689,-1.6736,-1.6732,-1.6952,-1.6903,-1.6931,-1.6993,-1.7212,-1.722,-1.7228,-1.7255,-1.7269,-1.7281,0,0,0,0,0,0,-1.625,-1.6342,-1.6342,-1.6469,-1.6537,-1.662,-1.6683,-1.6685,-1.6763,-1.6758,-1.6793,-1.6814,-1.6932,-1.6974,-1.6919,-1.712,-1.7078,-1.7092,-1.7089,-1.7103,-1.7114,-1.7102,-1.6895,0,0,0,0,0,-1.6268,-1.635,-1.6426,-1.6532,-1.6565,-1.6618,-1.6668,-1.6686,-1.6757,-1.6786,-1.6841,-1.6911,-1.6996,-1.7052,-1.7134,-1.7265,-1.7285,-1.7321,-1.7332,-1.7341,-1.7354,-1.7427,-1.7445,-1.726,-1.726,-1.7259,0,0,-1.6308,-1.6368,-1.6418,-1.6536,-1.6591,-1.6676,-1.6642,-1.6733,-1.6797,-1.68,-1.6915,-1.6958,-1.7039,-1.7164,-1.7222,-1.7203,-1.7409,-1.7352,-1.7358,-1.7366,-1.7438,-1.7455,-1.7471,-1.7265,-1.7264,-1.7263,0,0,-1.6423,-1.6476,-1.657,-1.6624,-1.6707,-1.6741,-1.6763,-1.6846,-1.6875,-1.699,-1.6995,-1.7071,-1.7216,-1.7274,-1.7322,-1.7458,-1.7458,-1.7483,-1.7542,-1.7613,-1.7628,-1.7641,-1.7691,-1.7708,-1.7495,-1.7495,-1.7495,0,-1.6461,-1.6589,-1.6618,-1.671,-1.6762,-1.6767,-1.6863,-1.6915,-1.702,-1.7057,-1.7033,-1.7216,-1.7271,-1.741,-1.7443,-1.7481,-1.7509,-1.7474,-1.7623,-1.7637,-1.7649,-1.7697,-1.7716,-1.7498,-1.7498,-1.7497,-1.7497,0,-1.6633,-1.6721,-1.6787,-1.6888,-1.6948,-1.7041,-1.7085,-1.7142,-1.7154,-1.7191,-1.7309,-1.7375,-1.747,-1.7504,-1.7518,-1.7646,-1.7632,-1.7615,-1.7574,-1.7669,-1.7715,-1.7734,-1.7502,-1.7501,-1.75,-1.7499,0,0,-1.6765,-1.688,-1.6904,-1.695,-1.704,-1.7109,-1.7203,-1.7295,-1.7344,-1.7416,-1.7497,-1.7619,-1.7604,-1.7659,-1.7678,-1.774,-1.7846,-1.7717,-1.7719,-1.774,-1.7993,-1.8006,-1.8027,-1.7845,-1.7849,-1.7852,-1.7987,0,-1.6891,-1.7057,-1.7086,-1.7231,-1.7314,-1.7319,-1.7401,-1.7465,-1.7502,-1.7578,-1.7619,-1.7705,-1.7678,-1.7712,-1.7773,-1.782,-1.7897,-1.781,-1.7922,-1.7925,-1.7903,-1.8051,-1.8065,-1.8189,-1.8004,-1.8007,-1.801,0,-1.7061,-1.7137,-1.729,-1.737,-1.7405,-1.7478,-1.7566,-1.7637,-1.7711,-1.7733,-1.7794,-1.7806,-1.7904,-1.7857,-1.7993,-1.7933,-1.798,-1.801,-1.8015,-1.8029,-1.7975,-1.807,-1.8229,-1.8249,-1.8038,-1.8036,-1.8034,0,-1.7144,-1.7284,-1.7394,-1.7433,-1.7528,-1.7579,-1.7621,-1.7692,-1.7746,-1.7822,-1.7858,-1.7944,-1.7993,-1.806,-1.8095,-1.8057,-1.823,-1.8185,-1.8253,-1.8252,-1.8291,-1.8288,-1.8462,-1.8317,-1.8317,-1.8317,-1.8316,0,-1.7283,-1.7378,-1.7433,-1.7501,-1.7607,-1.7638,-1.7742,-1.7783,-1.7846,-1.7923,-1.7932,-1.8004,-1.8046,-1.8124,-1.8152,-1.8262,-1.8283,-1.8305,-1.8311,-1.8305,-1.8303,-1.8338,-1.8331,-1.8322,-1.8321,-1.832,-1.8319,0,-1.7395,-1.7436,-1.7556,-1.7636,-1.7658,-1.7733,-1.7801,-1.7868,-1.7903,-1.8,-1.8025,-1.8082,-1.8174,-1.8216,-1.833,-1.8349,-1.8474,-1.8474,-1.845,-1.8452,-1.8518,-1.8512,-1.8723,-1.8753,-1.8586,-1.8588,-1.8589,0,-1.7482,-1.7555,-1.7642,-1.7693,-1.7736,-1.7819,-1.7874,-1.7908,-1.7965,-1.8054,-1.811,-1.8202,-1.8278,-1.8426,-1.8478,-1.8566,-1.8569,-1.8636,-1.8582,-1.8574,-1.8572,-1.8568,-1.8576,-1.8647,-1.8649,-1.865,-1.8651,0,-1.7633,-1.7649,-1.7728,-1.7813,-1.7878,-1.7947,-1.8015,-1.8057,-1.8101,-1.8164,-1.8259,-1.8318,-1.8434,-1.8526,-1.8617,-1.8661,-1.8665,-1.8667,-1.8688,-1.8683,-1.8667,-1.8678,-1.8479,-1.8663,-1.8662,-1.8661,-1.866,-1.866,-1.7737,-1.7802,-1.7873,-1.796,-1.8014,-1.8077,-1.8143,-1.8187,-1.8266,-1.8363,-1.8377,-1.8478,-1.855,-1.8672,-1.872,-1.88,-1.8784,-1.8813,-1.8821,-1.8828,-1.8833,-1.8652,-1.8816,-1.8816,-1.8816,-1.8815,-1.8815,0,-1.7889,-1.7935,-1.8015,-1.8109,-1.8177,-1.8172,-1.8247,-1.8305,-1.8393,-1.8459,-1.8533,-1.8642,-1.8731,-1.879,-1.888,-1.8933,-1.8937,-1.8956,-1.8954,-1.8964,-1.8841,-1.8815,-1.8952,-1.8952,-1.8951,-1.8951,-1.8951,-1.8951,-1.7977,-1.8087,-1.8111,-1.8248,-1.8294,-1.8392,-1.8435,-1.8494,-1.8547,-1.8667,-1.8741,-1.8778,-1.8842,-1.8937,-1.9019,-1.9033,-1.9067,-1.9087,-1.9102,-1.8987,-1.8973,-1.8959,-1.8935,-1.9094,-1.9094,-1.9218,-1.9219,-1.922]},{"header":{"parameterUnit":"m.s-1","parameterCategory":1,"la1":30.2991,"la2":30.254,"lo1":-89.0895,"lo2":-89.0444,"dy":0.0017,"dx":0.0017,"nx":28,"ny":28,"refTime":"2025-06-01T09:00:00:Z","depth":0,"parameterNumber":3,"parameterNumberName":"V-component_of_WINDS"},"data":[0,0,0,0,0,0,0,0,0,0,0,0,0,0,0,0,0,0,0,0,0,0,0,0,0,0,0,0,0,0,0,0,0,0,0,0,0,0,0,0,0,0,0,0,0,0,0,0,0,0,0,0,0,0,0,0,0,0,-0.2814,-0.2815,0,-0.2879,-0.2879,-0.288,-0.2883,-0.2882,-0.2881,-0.288,-0.2952,-0.2955,-0.2957,0,0,0,0,0,0,0,0,0,0,0,0,0,-0.2697,-0.2699,-0.2814,-0.2815,-0.2816,-0.2879,-0.2879,-0.288,-0.2883,-0.2882,-0.2881,-0.288,-0.2951,-0.2954,-0.2957,0,0,0,0,0,0,0,0,0,0,0,0,0,-0.2754,-0.27,-0.2814,-0.2824,-0.2826,-0.2878,-0.2879,-0.2881,-0.2883,-0.2882,-0.2881,-0.288,-0.295,-0.2954,-0.2958,-0.3006,0,0,-0.297,-0.2972,0,0,0,0,0,0,0,0,-0.275,-0.2758,-0.2822,-0.2824,-0.2826,-0.2871,-0.2864,-0.2923,-0.2883,-0.2862,-0.288,-0.2879,-0.2926,-0.2932,-0.2947,-0.3009,-0.3012,-0.297,-0.2973,-0.2974,-0.2975,0,0,0,0,0,0,0,-0.2746,-0.2755,-0.284,-0.2823,-0.2825,-0.2827,-0.2834,-0.2875,-0.29,-0.2863,-0.2864,-0.2871,-0.2927,-0.2943,-0.2949,-0.3013,-0.297,-0.2974,-0.2976,-0.2978,-0.3117,-0.3118,0,0,0,0,0,0,-0.274,-0.2752,-0.2838,-0.2842,-0.2784,-0.283,-0.2838,-0.2858,-0.29,-0.2905,-0.2872,-0.2871,-0.2937,-0.2944,-0.2951,-0.301,-0.2974,-0.2978,-0.298,-0.3115,-0.3117,-0.3118,0,0,0,0,0,0,-0.2737,-0.2747,-0.2835,-0.2797,-0.2808,-0.2833,-0.2856,-0.286,-0.2876,-0.2906,-0.2911,-0.2884,-0.2936,-0.2946,-0.2992,-0.3012,-0.298,-0.2983,-0.3114,-0.3116,-0.3118,-0.3128,0,0,0,0,0,0,-0.2734,-0.2746,-0.2764,-0.2797,-0.281,-0.2873,-0.2857,-0.2862,-0.2882,-0.2881,-0.2918,-0.2923,-0.2936,-0.2986,-0.2995,-0.3017,-0.2986,-0.3112,-0.3115,-0.3117,-0.3126,-0.313,-0.3133,0,0,0,0,0,-0.273,-0.2766,-0.2765,-0.2776,-0.2833,-0.2874,-0.2882,-0.2895,-0.2884,-0.2902,-0.2921,-0.2922,-0.3008,-0.299,-0.3001,-0.3025,-0.3111,-0.3114,-0.3117,-0.3124,-0.3129,-0.3133,0,0,0,0,0,0,-0.2737,-0.2771,-0.277,-0.2818,-0.2843,-0.2875,-0.2899,-0.29,-0.293,-0.2929,-0.2945,-0.2953,-0.2998,-0.3016,-0.2996,-0.3073,-0.3058,-0.3064,-0.306,-0.3065,-0.3069,-0.3064,-0.299,0,0,0,0,0,-0.2744,-0.2774,-0.2802,-0.2841,-0.2853,-0.2874,-0.2893,-0.29,-0.2927,-0.2939,-0.2961,-0.2989,-0.3023,-0.3045,-0.3077,-0.3127,-0.3136,-0.3149,-0.3152,-0.3155,-0.3161,-0.3188,-0.3194,-0.3128,-0.3128,-0.3128,0,0,-0.276,-0.2781,-0.2799,-0.2843,-0.2864,-0.2895,-0.2883,-0.2917,-0.2941,-0.2945,-0.2989,-0.3006,-0.3038,-0.3086,-0.3109,-0.3103,-0.318,-0.3159,-0.3161,-0.3165,-0.3192,-0.3198,-0.3204,-0.313,-0.313,-0.313,0,0,-0.2804,-0.2822,-0.2857,-0.2877,-0.2907,-0.292,-0.2928,-0.2959,-0.297,-0.3014,-0.3017,-0.3046,-0.3103,-0.3126,-0.3145,-0.3194,-0.3196,-0.3204,-0.3225,-0.3252,-0.3257,-0.3262,-0.328,-0.3286,-0.3209,-0.3209,-0.3209,0,-0.282,-0.2866,-0.2875,-0.2909,-0.2928,-0.2929,-0.2965,-0.2985,-0.3025,-0.3038,-0.303,-0.31,-0.3122,-0.3176,-0.3187,-0.3202,-0.3213,-0.3201,-0.3255,-0.326,-0.3265,-0.3282,-0.3289,-0.321,-0.321,-0.321,-0.321,0,-0.2884,-0.2916,-0.294,-0.2976,-0.2998,-0.3032,-0.3048,-0.3069,-0.3074,-0.3087,-0.3132,-0.3158,-0.3195,-0.3208,-0.3214,-0.3262,-0.3257,-0.3251,-0.3238,-0.3271,-0.3288,-0.3295,-0.3211,-0.3211,-0.321,-0.321,0,0,-0.2937,-0.2975,-0.2984,-0.3,-0.3032,-0.3058,-0.3092,-0.3126,-0.3144,-0.3171,-0.3201,-0.3248,-0.3242,-0.3264,-0.3272,-0.3295,-0.3333,-0.3287,-0.3288,-0.3296,-0.3388,-0.3392,-0.34,-0.3333,-0.3335,-0.3336,-0.3385,0,-0.2985,-0.3045,-0.3053,-0.3106,-0.3136,-0.3136,-0.3166,-0.319,-0.3203,-0.3231,-0.3246,-0.3279,-0.327,-0.3283,-0.3305,-0.3324,-0.3352,-0.332,-0.3363,-0.3364,-0.3356,-0.3408,-0.3414,-0.3459,-0.3392,-0.3393,-0.3394,0,-0.305,-0.3076,-0.3131,-0.3158,-0.3171,-0.3197,-0.3228,-0.3255,-0.3281,-0.3289,-0.3312,-0.3316,-0.3353,-0.3335,-0.3386,-0.3364,-0.3382,-0.3393,-0.3395,-0.3401,-0.3382,-0.3417,-0.3474,-0.3481,-0.3404,-0.3403,-0.3402,0,-0.3084,-0.3133,-0.3172,-0.3186,-0.3217,-0.3236,-0.325,-0.3275,-0.3295,-0.3322,-0.3335,-0.3367,-0.3385,-0.341,-0.3424,-0.341,-0.3474,-0.3458,-0.3483,-0.3482,-0.3498,-0.3497,-0.356,-0.3507,-0.3507,-0.3507,-0.3507,0,-0.3138,-0.3172,-0.3187,-0.3212,-0.325,-0.3259,-0.3297,-0.3311,-0.3333,-0.3361,-0.3363,-0.339,-0.3405,-0.3434,-0.3444,-0.3485,-0.3493,-0.3501,-0.3504,-0.3502,-0.3501,-0.3515,-0.3513,-0.3509,-0.3508,-0.3508,-0.3508,0,-0.3184,-0.3195,-0.3238,-0.3263,-0.327,-0.3297,-0.332,-0.3344,-0.3355,-0.339,-0.3399,-0.3419,-0.3452,-0.3467,-0.351,-0.3517,-0.3563,-0.3563,-0.3554,-0.3555,-0.3579,-0.3577,-0.3655,-0.3666,-0.3604,-0.3605,-0.3605,0,-0.3218,-0.3244,-0.3271,-0.3288,-0.3302,-0.3331,-0.335,-0.336,-0.338,-0.341,-0.3431,-0.3464,-0.3491,-0.3545,-0.3564,-0.3596,-0.3598,-0.3622,-0.3603,-0.3599,-0.3599,-0.3598,-0.3601,-0.3627,-0.3627,-0.3628,-0.3628,0,-0.3278,-0.3281,-0.3308,-0.3335,-0.3357,-0.338,-0.3403,-0.3418,-0.3431,-0.3453,-0.3487,-0.3507,-0.3549,-0.3582,-0.3615,-0.3631,-0.3633,-0.3634,-0.3641,-0.364,-0.3634,-0.3638,-0.3565,-0.3633,-0.3632,-0.3632,-0.3632,-0.3631,-0.3319,-0.3342,-0.3364,-0.3393,-0.341,-0.343,-0.3454,-0.3467,-0.3494,-0.3528,-0.3532,-0.3567,-0.3592,-0.3636,-0.3653,-0.3682,-0.3676,-0.3687,-0.369,-0.3693,-0.3694,-0.3628,-0.3688,-0.3688,-0.3688,-0.3687,-0.3687,0,-0.338,-0.3393,-0.3419,-0.3449,-0.3472,-0.3468,-0.3492,-0.3512,-0.3543,-0.3565,-0.359,-0.3628,-0.366,-0.368,-0.3712,-0.3731,-0.3732,-0.3739,-0.3739,-0.3743,-0.3698,-0.3688,-0.3738,-0.3738,-0.3738,-0.3738,-0.3738,-0.3738,-0.3414,-0.3452,-0.3457,-0.3504,-0.3517,-0.355,-0.3565,-0.3584,-0.3601,-0.3643,-0.3668,-0.368,-0.3701,-0.3734,-0.3763,-0.3768,-0.3781,-0.3788,-0.3793,-0.3751,-0.3746,-0.3741,-0.3732,-0.379,-0.379,-0.3836,-0.3836,-0.3837]}]]